Location: Gälforsberget
(66.6500°N, 22.4167°E)
Time: 20:48:46
(UTC+00:00)

Cosmos 1400 Rocket - Pass Details

Date: 11 April 2026
Orbit: 474 x 505 km, 81.1° (Epoch: 11 May)

Event Time Altitude Azimuth Distance (km) Brightness Sun altitude
Exits shadow 19:29:27 10° 151° (SSE) 1,661 4.6 -8.0°
Reaches altitude 10° 19:29:29 10° 150° (SSE) 1,649 4.6 -8.0°
Maximum altitude 19:32:30 26° 93° (E) 989 3.7 -8.2°
Drops below altitude 10° 19:35:32 10° 36° (NE) 1,662 5.4 -8.4°
Sets 19:37:52 0° 24° (NNE) 2,549 6.5 -8.5°
